time_stamp(utc),avg(mph),gust(mph),direction(deg),12m_air_temp(f),sonic_u(cm/s),sonic_v(cm/s),sonic_w(cm/s),pressure,2m_air_temp(f),pyranometer(W/m^2)
"2019-03-26 00:02:06+00",12.0,14.0,,45.3,354,353,2,1016.04,44.7,0
"2019-03-26 00:07:06+00",11.9,13.9,,45.1,369,342,21,1016.11,44.5,0
"2019-03-26 00:12:06+00",12.7,14.7,,45.1,399,358,23,1016.17,44.1,0
"2019-03-26 00:17:06+00",12.5,13.5,,44.9,377,367,13,1016.16,43.9,0
"2019-03-26 00:22:06+00",12.2,14.2,,44.7,381,346,3,1016.15,43.7,0
"2019-03-26 00:27:06+00",11.6,13.6,,44.5,360,325,16,1016.22,43.5,0
"2019-03-26 00:32:06+00",11.9,12.9,,44.3,383,327,13,1016.27,43.3,0
"2019-03-26 00:37:06+00",10.9,12.9,,44.2,305,336,-4,1016.35,43.2,0
"2019-03-26 00:42:06+00",9.5,10.5,,44.1,257,293,5,1016.46,43.1,0
"2019-03-26 00:47:06+00",9.5,10.5,,44,233,326,5,1016.64,43,0
"2019-03-26 00:52:06+00",9.0,11.0,,43.8,227,301,11,1016.69,42.9,0
"2019-03-26 00:57:06+00",6.8,8.8,,43.6,110,260,7,1016.87,42.8,0
"2019-03-26 01:02:06+00",7.0,8.0,,43.6,106,265,-4,1017,42.7,0
"2019-03-26 01:07:06+00",6.3,7.3,,43.5,82,247,-1,1017.14,42.7,0
"2019-03-26 01:12:06+00",5.4,6.4,,43.4,47,217,9,1017.12,42.6,0
"2019-03-26 01:17:06+00",6.3,7.3,,43.3,37,264,-2,1017.13,42.6,0
"2019-03-26 01:22:06+00",7.6,8.6,,43.1,-34,325,5,1017.34,42.6,0
"2019-03-26 01:27:06+00",8.4,9.4,,42.9,-21,357,0,1017.37,42.4,0
"2019-03-26 01:32:06+00",8.8,9.8,,42.7,-49,379,7,1017.38,42.4,0
"2019-03-26 01:37:06+00",10.2,11.2,,42.7,-65,438,14,1017.41,42.2,0
"2019-03-26 01:42:06+00",8.9,9.9,,42.6,-52,378,21,1017.38,42.1,0
"2019-03-26 01:47:06+00",8.8,9.8,,42.5,10,382,12,1017.32,42,0
"2019-03-26 01:52:06+00",8.9,9.9,,42.5,23,376,9,1017.38,41.8,0
"2019-03-26 01:57:06+00",9.8,10.8,,42.5,19,424,8,1017.34,41.8,0
"2019-03-26 02:02:06+00",7.7,9.7,,42.5,15,333,19,1017.24,41.7,0
"2019-03-26 02:07:06+00",8.2,9.2,,42.5,20,353,1,1017.22,41.6,0
"2019-03-26 02:12:06+00",8.3,10.3,,42.4,30,355,16,1017.23,41.6,0
"2019-03-26 02:17:06+00",9.3,11.3,,42.3,68,384,13,1017.12,41.5,0
"2019-03-26 02:22:06+00",8.8,9.8,,42.3,108,346,11,1017.1,41.4,0
"2019-03-26 02:27:06+00",11.5,13.5,,42.3,165,454,-7,1017.06,41.5,0
"2019-03-26 02:32:06+00",11.5,13.5,,42.3,120,470,-9,1017.1,41.4,0
"2019-03-26 02:37:06+00",10.3,12.3,,42.3,105,421,9,1017.08,41.4,0
"2019-03-26 02:42:06+00",9.8,11.8,,42.1,105,387,0,1017.17,41.4,0
"2019-03-26 02:57:06+00",8.7,10.7,,42,1094,-1328,947,1017.05,41.3,0
"2019-03-26 03:02:06+00",11.1,14.1,,42,198,426,-1,1017.03,41.2,0
"2019-03-26 03:07:06+00",10.5,12.5,,42,209,399,-1,1017.06,41.2,0
"2019-03-26 03:12:06+00",9.4,11.4,,42,154,362,8,1017.02,41.2,0
"2019-03-26 03:17:06+00",9.4,11.4,,42,184,347,2,1017.03,41.2,0
"2019-03-26 03:22:06+00",9.8,10.8,,42,181,374,6,1017.06,41.2,0
"2019-03-26 03:27:06+00",10.1,11.1,,42,171,382,1,1017.12,41.2,0
"2019-03-26 03:32:06+00",9.0,10.0,,42,135,346,0,1017.21,41.2,0
"2019-03-26 03:37:06+00",9.8,10.8,,42,136,378,-5,1017.2,41.2,0
"2019-03-26 03:42:06+00",10.5,12.5,,42,149,406,-2,1017.15,41.2,0
"2019-03-26 03:47:06+00",11.7,12.7,,41.9,137,479,-6,1017.26,41.2,0
"2019-03-26 03:52:06+00",12.6,13.6,,41.8,125,520,3,1017.25,41.1,0
"2019-03-26 03:57:06+00",12.3,14.3,,41.7,94,518,8,1017.23,41,0
"2019-03-26 04:02:06+00",11.3,14.3,,41.7,148,455,7,1017.11,40.9,0
"2019-03-26 04:07:06+00",12.1,14.1,,41.6,183,475,-5,1017.08,40.9,0
"2019-03-26 04:12:06+00",11.5,13.5,,41.5,133,469,5,1017.04,40.8,0
"2019-03-26 04:17:06+00",13.5,14.5,,41.5,175,527,-11,1017.14,40.8,0
"2019-03-26 04:22:06+00",13.1,15.1,,41.5,199,512,-1,1017.13,40.8,0
"2019-03-26 04:27:06+00",13.0,15.0,,41.5,165,514,-5,1017.14,40.8,0
"2019-03-26 04:32:06+00",9.9,12.9,,41.5,139,392,9,1017.16,40.8,0
"2019-03-26 04:37:06+00",9.7,11.7,,41.5,116,393,0,1017.1,40.8,0
"2019-03-26 04:42:06+00",10.1,12.1,,41.4,148,399,13,1017.1,40.8,0
"2019-03-26 04:47:06+00",11.8,13.8,,41.5,137,475,-5,1017.07,40.8,0
"2019-03-26 04:52:06+00",11.3,13.3,,41.4,186,436,2,1016.99,40.8,0
"2019-03-26 04:57:06+00",11.6,13.6,,41.4,167,450,3,1016.99,40.8,0
"2019-03-26 05:02:06+00",9.1,12.1,,41.5,88,378,15,1016.92,40.8,0
"2019-03-26 05:07:06+00",9.1,11.1,,41.5,86,379,10,1016.97,40.8,0
"2019-03-26 05:12:06+00",9.6,11.6,,41.5,138,375,-7,1016.93,40.8,0
"2019-03-26 05:17:06+00",7.0,8.0,,41.6,134,252,10,1016.94,40.9,0
"2019-03-26 05:22:06+00",8.2,9.2,,41.6,116,317,7,1017,40.9,0
"2019-03-26 05:27:06+00",11.6,12.6,,41.8,136,468,-9,1017.03,40.9,0
"2019-03-26 05:32:06+00",11.5,13.5,,41.8,178,438,5,1017.01,41,0
"2019-03-26 05:37:06+00",12.0,13.0,,41.8,214,462,-4,1016.95,41.1,0
"2019-03-26 05:42:06+00",8.5,10.5,,41.7,142,325,11,1016.82,41,0
"2019-03-26 05:47:06+00",11.5,13.5,,41.7,91,480,5,1016.91,41,0
"2019-03-26 05:52:06+00",10.0,12.0,,41.6,132,394,8,1016.8,41,0
"2019-03-26 05:57:06+00",8.9,10.9,,41.6,44,384,18,1016.8,41,0
"2019-03-26 06:02:06+00",8.6,10.6,,41.5,85,355,17,1016.86,41,0
"2019-03-26 06:07:06+00",11.1,12.1,,41.5,55,472,11,1017.02,40.9,0
"2019-03-26 06:12:06+00",11.1,13.1,,41.4,54,482,9,1016.98,40.8,0
"2019-03-26 06:17:06+00",13.6,15.6,,41.3,86,579,-7,1016.86,40.7,0
"2019-03-26 06:22:06+00",12.3,14.3,,41.4,73,528,6,1016.87,40.7,0
"2019-03-26 06:27:06+00",9.9,12.9,,41.4,19,432,18,1016.84,40.7,0
"2019-03-26 06:32:06+00",14.5,16.5,,41.4,90,617,-3,1016.75,40.7,0
"2019-03-26 06:37:06+00",11.5,14.5,,41.4,22,513,18,1016.84,40.7,0
"2019-03-26 06:42:06+00",11.7,12.7,,41.2,50,497,9,1016.81,40.6,0
"2019-03-26 06:47:06+00",12.4,14.4,,41,55,531,17,1016.68,40.5,0
"2019-03-26 06:52:06+00",13.0,14.0,,41,17,569,16,1016.75,40.3,0
"2019-03-26 06:57:06+00",14.5,16.5,,41,5,626,24,1016.76,40.2,0
"2019-03-26 07:02:06+00",15.1,17.1,,41,0,662,12,1016.71,40.2,0
"2019-03-26 07:07:06+00",14.7,17.7,,40.8,27,645,19,1016.56,40.1,0
"2019-03-26 07:12:06+00",14.6,16.6,,40.7,64,629,22,1016.51,40.1,0
"2019-03-26 07:17:06+00",16.8,18.8,,40.7,69,731,14,1016.5,40.1,0
"2019-03-26 07:22:06+00",15.3,16.3,,40.7,104,657,6,1016.55,40,0
"2019-03-26 07:27:06+00",17.1,20.1,,40.6,82,737,12,1016.48,39.9,0
"2019-03-26 07:32:06+00",15.6,18.6,,40.5,77,688,20,1016.36,39.7,0
"2019-03-26 07:37:06+00",16.7,18.7,,40.4,122,707,1,1016.33,39.6,0
"2019-03-26 07:42:06+00",14.6,18.6,,40.3,66,629,-10,1016.38,39.4,0
"2019-03-26 07:47:06+00",12.0,14.0,,40.2,59,519,16,1016.49,39.3,0
"2019-03-26 07:52:06+00",14.4,17.4,,40.4,102,614,7,1016.5,39.3,0
"2019-03-26 07:57:06+00",16.8,18.8,,40.4,147,701,5,1016.48,39.3,0
"2019-03-26 08:02:06+00",14.6,16.6,,40.4,163,606,5,1016.65,39.3,0
"2019-03-26 08:07:06+00",14.8,16.8,,40.4,95,625,15,1016.78,39.3,0
"2019-03-26 08:12:06+00",15.0,19.0,,40.6,182,599,4,1016.84,39.3,0
"2019-03-26 08:17:06+00",16.4,20.4,,40.5,145,683,-3,1017.05,39.3,0
"2019-03-26 08:22:06+00",16.8,20.8,,40.3,134,702,6,1017.04,39.2,0
"2019-03-26 08:27:06+00",16.7,18.7,,40.2,80,721,8,1017.1,39.1,0
"2019-03-26 08:32:06+00",16.8,18.8,,40,84,732,12,1017.3,39,0
"2019-03-26 08:37:06+00",19.5,24.5,,40,221,797,-4,1017.25,38.9,0
"2019-03-26 08:42:06+00",21.4,24.4,,39.8,305,836,20,1017.24,38.7,0
"2019-03-26 08:47:06+00",21.7,24.7,,39.4,213,894,0,1017.3,38.4,0
"2019-03-26 08:52:06+00",20.7,25.7,,39.2,216,842,-12,1017.47,38.1,0
"2019-03-26 08:57:06+00",22.5,25.5,,39.2,257,924,-8,1017.52,38.1,0
"2019-03-26 09:02:06+00",21.7,25.7,,38.8,161,932,9,1017.54,37.8,0
"2019-03-26 09:07:06+00",19.2,23.2,,38.5,178,802,1,1017.7,37.5,0
"2019-03-26 09:12:06+00",16.9,19.9,,38,73,734,27,1017.76,37.2,0
"2019-03-26 09:17:06+00",16.8,19.8,,37.7,79,726,12,1017.93,36.8,0
"2019-03-26 09:22:06+00",19.4,23.4,,37.5,118,834,-8,1017.87,36.5,0
"2019-03-26 09:27:06+00",16.6,18.6,,37.3,49,730,24,1017.96,36.3,0
"2019-03-26 09:32:06+00",16.7,18.7,,37.1,72,725,7,1018.01,36.1,0
"2019-03-26 09:37:06+00",19.0,22.0,,37,65,833,18,1018.1,36,0
"2019-03-26 09:42:06+00",17.8,20.8,,36.8,109,769,19,1018.13,35.8,0
"2019-03-26 09:47:06+00",17.6,20.6,,36.8,110,757,7,1018.3,35.8,0
"2019-03-26 09:52:06+00",18.4,21.4,,36.6,151,768,0,1018.29,35.7,0
"2019-03-26 09:57:06+00",17.9,20.9,,36.6,149,756,11,1018.42,35.6,0
"2019-03-26 10:02:06+00",21.1,24.1,,36.5,166,893,-1,1018.45,35.5,0
"2019-03-26 10:07:06+00",19.1,23.1,,36.4,201,787,-6,1018.56,35.4,0
"2019-03-26 10:12:06+00",21.8,24.8,,36.3,169,933,12,1018.52,35.3,0
"2019-03-26 10:17:06+00",21.1,23.1,,36.2,153,890,9,1018.52,35.2,0
"2019-03-26 10:22:06+00",17.0,23.0,,36,106,727,17,1018.61,35.1,0
"2019-03-26 10:27:06+00",19.7,22.7,,36,182,828,1,1018.65,35,0
"2019-03-26 10:32:06+00",19.2,23.2,,35.9,160,809,-3,1018.71,34.9,0
"2019-03-26 10:37:06+00",14.9,17.9,,35.7,107,620,13,1018.72,34.8,0
"2019-03-26 10:42:06+00",16.8,18.8,,35.3,8,735,19,1018.99,34.5,0
"2019-03-26 10:47:06+00",14.6,16.6,,35.1,28,640,7,1019.19,34.1,0
"2019-03-26 10:52:06+00",16.0,18.0,,35,-7,701,7,1019.3,33.9,0
"2019-03-26 10:57:06+00",14.2,17.2,,35,-47,622,18,1019.55,33.7,0
"2019-03-26 11:02:06+00",14.8,17.8,,34.8,29,652,10,1019.65,33.5,0
"2019-03-26 11:07:06+00",16.8,20.8,,35,216,678,10,1019.65,33.5,0
"2019-03-26 11:12:06+00",17.7,21.7,,35.2,301,689,15,1019.64,33.9,0
"2019-03-26 11:17:06+00",14.3,16.3,,34.5,3,620,9,1019.71,33.6,0
"2019-03-26 11:22:06+00",13.9,17.9,,34.2,89,605,11,1019.72,33.2,0
"2019-03-26 11:27:06+00",16.1,19.1,,34.3,104,687,12,1019.74,33.1,0
"2019-03-26 11:32:06+00",14.2,17.2,,34,26,626,12,1019.81,33,0
"2019-03-26 11:37:06+00",14.1,18.1,,33.9,87,603,15,1019.91,32.8,0
"2019-03-26 11:42:06+00",13.1,14.1,,34,75,558,14,1020.08,32.9,0
"2019-03-26 11:47:06+00",13.4,15.4,,33.8,67,576,30,1020.17,32.8,1
"2019-03-26 11:52:06+00",15.4,18.4,,33.8,90,666,5,1020.19,32.8,6.6
"2019-03-26 11:57:06+00",15.5,18.5,,34,45,673,14,1020.14,33.1,7.3
"2019-03-26 12:02:06+00",15.4,20.4,,34.2,188,621,12,1020.28,33.3,6.3
"2019-03-26 12:07:06+00",14.5,17.5,,34.1,79,621,5,1020.38,33.4,6.4
"2019-03-26 12:12:06+00",14.7,17.7,,33.8,55,635,-1,1020.46,33.3,18.4
"2019-03-26 12:17:06+00",14.3,17.3,,33.9,86,622,19,1020.58,33.4,37.1
"2019-03-26 12:22:06+00",17.3,22.3,,34.2,129,734,3,1020.57,33.7,44.5
"2019-03-26 12:27:06+00",13.3,16.3,,34.3,150,545,13,1020.61,34,91.3
"2019-03-26 12:32:06+00",18.2,20.2,,34.7,165,762,3,1020.54,34.9,146.6
"2019-03-26 12:37:06+00",17.1,19.1,,35.2,157,706,-11,1020.5,35.8,168.1
"2019-03-26 12:42:06+00",16.1,20.1,,35.5,148,680,7,1020.51,36.4,170.2
"2019-03-26 12:47:06+00",16.4,20.4,,36.1,211,658,16,1020.57,37.1,212.7
"2019-03-26 12:52:06+00",20.4,23.4,,36.6,402,788,4,1020.62,38,220.7
"2019-03-26 12:57:06+00",15.0,19.0,,37,277,570,34,1020.76,38.4,215.3
"2019-03-26 13:02:06+00",20.8,28.8,,37,428,785,19,1020.83,38.4,201.9
"2019-03-26 13:07:06+00",23.6,27.6,,37.3,565,840,31,1020.91,38.5,222.1
"2019-03-26 13:12:06+00",27.6,32.6,,37.3,701,930,10,1020.77,38.7,251.2
"2019-03-26 13:17:06+00",27.2,32.2,,37.2,659,965,-7,1020.95,38.7,250.1
"2019-03-26 13:22:06+00",26.2,30.2,,37.6,658,907,15,1021.02,39.1,228.7
"2019-03-26 13:27:06+00",27.9,31.9,,37.3,617,1062,15,1021.2,38.9,280.6
"2019-03-26 13:32:06+00",32.7,36.7,,37.2,797,1168,7,1021.22,38.9,282.3
"2019-03-26 13:37:06+00",26.5,32.5,,37.5,753,837,21,1021.25,39.1,286.6
"2019-03-26 13:42:06+00",24.6,30.6,,37.6,663,799,16,1021.33,39.4,296.6
"2019-03-26 13:47:06+00",26.1,30.1,,37.7,703,852,29,1021.48,39.4,297.4
"2019-03-26 13:52:06+00",30.2,35.2,,37.6,821,972,7,1021.52,39.5,313.2
"2019-03-26 13:57:06+00",27.5,32.5,,37.5,812,828,32,1021.77,39.4,319.2
"2019-03-26 14:02:06+00",25.1,29.1,,37.8,621,869,19,1021.9,39.7,331
"2019-03-26 14:07:06+00",29.3,32.3,,37.6,747,1002,1,1021.93,39.7,333.8
"2019-03-26 14:12:06+00",22.9,27.9,,38.2,579,792,49,1022.05,40.1,348
"2019-03-26 14:17:06+00",29.0,34.0,,37.9,753,946,-10,1022.14,40.2,356.4
"2019-03-26 14:22:06+00",23.0,27.0,,38.1,621,751,41,1022.35,40.3,366.4
"2019-03-26 14:27:06+00",28.0,36.0,,38.1,873,805,29,1022.3,40.5,374.7
"2019-03-26 14:32:06+00",27.5,32.5,,38.3,690,944,29,1022.47,40.7,383.4
"2019-03-26 14:37:06+00",26.6,29.6,,38,646,953,32,1022.59,40.2,392.6
"2019-03-26 14:42:06+00",26.6,30.6,,38.1,733,843,0,1022.57,40.3,401.2
"2019-03-26 14:47:06+00",26.2,31.2,,38.4,708,846,27,1022.84,40.7,409.4
"2019-03-26 14:52:06+00",28.1,33.1,,38.4,717,960,7,1022.89,40.8,417.4
"2019-03-26 14:57:06+00",29.4,33.4,,38.3,662,1079,-4,1022.99,40.8,425.1
"2019-03-26 15:02:06+00",25.6,27.6,,38,738,770,1,1023.08,40.6,433.4
"2019-03-26 15:07:06+00",26.0,30.0,,38.8,575,968,16,1023.29,41.2,441.7
"2019-03-26 15:12:06+00",25.1,32.1,,38.6,534,934,31,1023.26,41,448.8
"2019-03-26 15:17:06+00",26.5,31.5,,38.5,862,759,55,1023.38,41.2,458.1
"2019-03-26 15:22:06+00",25.7,29.7,,38.4,762,783,26,1023.43,41.2,464.6
"2019-03-26 15:27:06+00",25.0,29.0,,38.7,562,916,7,1023.5,41.5,470.2
"2019-03-26 15:32:06+00",26.9,29.9,,38.2,760,804,-6,1023.54,41.2,477.7
"2019-03-26 15:37:06+00",27.1,31.1,,38.6,713,918,15,1023.53,41.4,483.3
"2019-03-26 15:42:06+00",25.8,27.8,,38.7,850,721,45,1023.51,41.5,488.7
"2019-03-26 15:47:06+00",26.3,33.3,,38.9,629,930,8,1023.62,41.5,496.8
"2019-03-26 15:52:06+00",26.0,30.0,,38.8,655,901,20,1023.59,41.5,502.2
"2019-03-26 15:57:06+00",26.9,31.9,,39,932,716,54,1023.62,41.6,506.2
"2019-03-26 16:02:06+00",22.9,26.9,,39.2,625,734,34,1023.71,41.7,510.8
"2019-03-26 16:07:06+00",24.6,28.6,,38.6,696,746,-5,1023.77,41.4,516.8
"2019-03-26 16:12:06+00",26.5,30.5,,38.8,812,781,19,1023.69,41.6,520.9
"2019-03-26 16:17:06+00",24.2,28.2,,39.1,531,895,30,1023.79,41.8,523.5
"2019-03-26 16:22:06+00",28.4,30.4,,38.9,813,859,-7,1023.67,41.8,525.6
"2019-03-26 16:27:06+00",23.5,27.5,,39.3,789,644,60,1023.8,42.1,528.9
"2019-03-26 16:32:06+00",23.8,25.8,,39.1,711,721,27,1023.78,42,531.7
"2019-03-26 16:37:06+00",26.4,31.4,,39.2,845,764,54,1023.9,42,526.7
"2019-03-26 16:42:06+00",24.4,29.4,,39.3,683,774,52,1023.85,41.8,440.6
"2019-03-26 16:47:06+00",25.6,29.6,,39.4,618,909,2,1023.81,42.1,536.9
"2019-03-26 16:52:06+00",26.5,28.5,,39.1,909,718,28,1023.85,41.9,534.5
"2019-03-26 16:57:06+00",26.2,32.2,,39.2,766,780,-1,1023.87,41.9,536.5
"2019-03-26 17:02:06+00",25.5,27.5,,39.1,816,720,22,1023.95,42.1,534.6
"2019-03-26 17:07:06+00",24.1,28.1,,39.4,772,676,13,1023.9,42.3,532.1
"2019-03-26 17:12:06+00",24.8,26.8,,39.7,849,674,52,1023.95,42.6,529.7
"2019-03-26 17:17:06+00",28.0,30.0,,39.5,934,777,20,1023.82,42.5,529.9
"2019-03-26 17:22:06+00",22.4,26.4,,39.5,608,723,17,1023.9,42.4,526.8
"2019-03-26 17:27:06+00",26.2,30.2,,39.7,815,758,39,1023.83,42.5,525.5
"2019-03-26 17:32:06+00",27.5,29.5,,39.3,876,777,35,1023.82,42.2,523.3
"2019-03-26 17:37:06+00",25.5,27.5,,39.4,863,699,37,1023.85,42.1,521.8
"2019-03-26 17:42:06+00",24.8,27.8,,39.1,904,612,35,1023.87,42,517.3
"2019-03-26 17:47:06+00",25.1,29.1,,39.3,895,650,44,1023.74,42.3,513.6
"2019-03-26 17:52:06+00",26.3,29.3,,39.6,913,696,50,1023.76,42.3,508.3
"2019-03-26 17:57:06+00",26.7,29.7,,39.8,902,723,34,1023.68,42.5,504.9
"2019-03-26 18:02:06+00",25.6,31.6,,39.8,969,593,65,1023.73,42.6,499.7
"2019-03-26 18:07:06+00",25.2,29.2,,39.6,920,631,56,1023.61,42.5,496
"2019-03-26 18:12:06+00",25.1,27.1,,39.8,826,700,35,1023.48,42.5,489.7
"2019-03-26 18:17:06+00",27.2,29.2,,39.7,1057,593,48,1023.45,42.5,484.9
"2019-03-26 18:22:06+00",20.7,23.7,,40.1,759,508,102,1023.52,42.7,478.4
"2019-03-26 18:27:06+00",24.5,26.5,,39.8,862,642,26,1023.4,42.8,470.8
"2019-03-26 18:32:06+00",21.4,24.4,,40,819,492,57,1023.43,42.6,463.7
"2019-03-26 18:37:06+00",23.6,26.6,,40.4,917,517,45,1023.32,43.3,457.2
"2019-03-26 18:42:06+00",23.7,27.7,,40.1,923,516,33,1023.36,43.3,448.3
"2019-03-26 18:47:06+00",22.7,26.7,,40.3,941,405,43,1023.38,43.5,441.1
"2019-03-26 18:52:06+00",23.0,28.0,,40.1,913,470,29,1023.31,43.5,437.2
"2019-03-26 18:57:06+00",23.4,27.4,,40.1,908,522,59,1023.23,43.4,429.7
"2019-03-26 19:02:06+00",20.0,24.0,,40.7,774,444,70,1023.17,43.6,420.3
"2019-03-26 19:07:06+00",24.8,27.8,,40.3,1046,419,28,1023.2,43.8,414.1
"2019-03-26 19:12:06+00",22.1,26.1,,40.2,925,394,30,1023.21,43.6,404.4
"2019-03-26 19:17:06+00",24.4,26.4,,40.3,999,465,11,1023.19,43.6,398
"2019-03-26 19:22:06+00",21.2,24.2,,40.7,882,371,44,1023.19,44.1,391.2
"2019-03-26 19:27:06+00",19.9,21.9,,40.7,792,403,28,1023.13,44,380.6
"2019-03-26 19:32:06+00",19.8,23.8,,40.8,796,376,63,1023.14,44.1,370.9
"2019-03-26 19:37:06+00",22.2,25.2,,40.5,956,305,50,1023.11,44,365.3
"2019-03-26 19:42:06+00",21.5,25.5,,40.5,949,225,47,1023.16,44.1,356.3
"2019-03-26 19:47:06+00",19.3,22.3,,41,834,291,69,1023.18,44.2,350.1
"2019-03-26 19:52:06+00",19.7,22.7,,40.7,874,174,65,1023.22,44.1,341.6
"2019-03-26 19:57:06+00",17.8,22.8,,40.9,738,290,50,1023.15,44,333.5
"2019-03-26 20:02:06+00",20.4,23.4,,41.1,904,175,73,1023.13,44.2,322.5
"2019-03-26 20:07:06+00",20.5,23.5,,40.8,905,232,30,1023.24,44,316.4
"2019-03-26 20:12:06+00",19.2,22.2,,41.1,838,227,50,1023.13,44.1,308.8
"2019-03-26 20:17:06+00",17.7,20.7,,41.1,775,222,59,1023.18,44.1,302.5
"2019-03-26 20:22:06+00",20.5,23.5,,40.8,902,241,40,1023.1,43.8,293.1
"2019-03-26 20:27:06+00",20.8,21.8,,40.4,911,223,41,1023.22,43.5,286
"2019-03-26 20:32:06+00",17.3,19.3,,40.8,756,215,74,1023.28,43.6,274.8
"2019-03-26 20:37:06+00",15.9,17.9,,41.1,697,174,45,1023.38,43.8,268.2
"2019-03-26 20:42:06+00",17.1,20.1,,40.9,730,251,40,1023.25,43.7,262
"2019-03-26 20:47:06+00",17.0,20.0,,41,727,249,40,1023.25,43.8,254.1
"2019-03-26 20:52:06+00",15.8,18.8,,41.4,676,234,59,1023.22,43.9,244.3
"2019-03-26 20:57:06+00",17.7,19.7,,41.3,761,275,18,1023.32,43.9,235
"2019-03-26 21:02:06+00",16.5,19.5,,41.4,712,225,25,1023.28,43.9,225.8
"2019-03-26 21:07:06+00",16.5,19.5,,41.5,718,207,22,1023.35,43.9,217.2
"2019-03-26 21:12:06+00",16.3,19.3,,41.4,699,227,18,1023.4,43.8,206.9
"2019-03-26 21:17:06+00",15.8,17.8,,41.4,678,244,31,1023.39,43.7,198.2
"2019-03-26 21:22:06+00",12.5,14.5,,41.7,536,184,46,1023.52,43.8,186.8
"2019-03-26 21:27:06+00",13.7,14.7,,41.8,564,247,34,1023.6,43.9,177.1
"2019-03-26 21:32:06+00",13.2,16.2,,41.8,536,248,-2,1023.58,43.9,164.1
"2019-03-26 21:37:06+00",13.8,15.8,,41.9,565,255,25,1023.68,43.9,155.3
"2019-03-26 21:42:06+00",13.3,15.3,,41.7,520,285,19,1023.71,43.8,142.8
"2019-03-26 21:47:06+00",14.0,15.0,,41.7,599,224,32,1023.81,43.7,131.3
"2019-03-26 21:52:06+00",13.6,14.6,,41.5,564,241,10,1023.79,43.5,120.2
"2019-03-26 21:57:06+00",11.6,13.6,,41.9,471,204,53,1023.8,43.6,108.3
"2019-03-26 22:02:06+00",13.8,15.8,,41.8,508,340,17,1023.83,43.5,97.9
"2019-03-26 22:07:06+00",10.1,12.1,,41.8,423,164,30,1023.88,43.4,85.8
"2019-03-26 22:12:06+00",10.4,12.4,,41.9,421,188,40,1024,43.3,73.4
"2019-03-26 22:17:06+00",10.5,12.5,,41.8,395,240,26,1024.02,43.2,64
"2019-03-26 22:22:06+00",10.7,11.7,,41.6,411,226,2,1024.1,43,50.7
"2019-03-26 22:27:06+00",9.2,11.2,,41.8,332,216,30,1024.06,42.9,40.7
"2019-03-26 22:32:06+00",9.8,10.8,,41.7,385,194,24,1024.11,42.8,31.4
"2019-03-26 22:37:06+00",7.2,8.2,,41.7,277,142,32,1024.14,42.6,21.1
"2019-03-26 22:42:06+00",6.6,7.6,,41.8,236,155,37,1024.21,42.5,12.1
"2019-03-26 22:47:06+00",8.2,9.2,,41.7,320,161,18,1024.24,42.3,2.2
"2019-03-26 22:52:06+00",8.2,9.2,,41.5,312,164,15,1024.24,42,0.1
"2019-03-26 22:57:06+00",6.5,7.5,,41.2,270,99,26,1024.22,41.6,0
"2019-03-26 23:02:06+00",7.3,9.3,,41,283,139,13,1024.24,41.3,0
"2019-03-26 23:07:06+00",6.3,7.3,,41.1,243,123,16,1024.41,40.9,0
"2019-03-26 23:12:06+00",6.4,7.4,,40.9,230,148,9,1024.42,40.4,0
"2019-03-26 23:17:06+00",6.8,8.8,,40.8,270,118,18,1024.45,39.8,0
"2019-03-26 23:22:06+00",7.9,8.9,,40.7,309,142,16,1024.53,39.1,0
"2019-03-26 23:27:06+00",6.3,6.3,,40.7,231,139,12,1024.51,38.7,0
"2019-03-26 23:32:06+00",4.5,5.5,,40.5,149,111,5,1024.54,38.2,0
"2019-03-26 23:37:06+00",4.1,5.1,,40.3,131,103,1,1024.6,38,0
"2019-03-26 23:42:06+00",4.4,5.4,,40.1,160,87,8,1024.67,37.9,0
"2019-03-26 23:47:06+00",5.2,5.2,,40.2,172,125,11,1024.7,37.6,0
"2019-03-26 23:52:06+00",4.5,5.5,,40.2,138,114,7,1024.77,37.5,0
"2019-03-26 23:57:06+00",3.7,4.7,,39.9,121,87,6,1024.82,37.5,0
